Regional Weather Roundup
Issued by NWS Boston, MA

Home | Current Version | Previous Version | Text Only | Print | Product List | Glossary On
Versions: 1 2 3 4 5 6 7 8 9 10 11 12 13 14 15 16 17 18 19 20 21 22 23 24 25 26 27 28
000
ASUS41 KBOX 181210
RWRBOX

REGIONAL WEATHER ROUNDUP
NATIONAL WEATHER SERVICE TAUNTON MA
700 AM EST THU JAN 18 2018

NOTE:  "FAIR" INDICATES FEW OR NO CLOUDS BELOW 12,000 FEET WITH NO
SIGNIFICANT WEATHER AND/OR OBSTRUCTIONS TO VISIBILITY.

MAZALL-181300-
EASTERN MASSACHUSETTS

CITY           SKY/WX    TMP DP  RH WIND       PRES   REMARKS
BOSTON         FAIR      24  15  68 W7        29.98F WCI  16
6HR MIN TEMP:  23; 6HR MAX TEMP:  31;

BEVERLY        FAIR      20  17  88 NW6       29.95F WCI  12
LAWRENCE       FAIR      21  13  71 VRB3      29.99R
BEDFORD        FAIR      16   8  71 SW5       29.96S WCI   9
BLUE HILL      NOT AVBL
NORWOOD        FAIR      21  15  78 W7        29.98S WCI  12
MARSHFIELD     FAIR      25  23  93 VRB3      29.97S
PLYMOUTH       FAIR      25  20  81 NW8       29.95F WCI  16
TAUNTON        FAIR      23  19  85 NW7       29.96F WCI  15
NEW BEDFORD    FAIR      25  23  92 VRB5      29.95F WCI  19
$$

MAZALL-181300-
CAPE COD AND THE ISLANDS

CITY           SKY/WX    TMP DP  RH WIND       PRES   REMARKS
FALMOUTH       CLOUDY    27  23  86 NW8       29.95  WCI  18
HYANNIS        CLOUDY    31  27  85 N6        29.92F WCI  25
CHATHAM        CLOUDY    31  28  89 NW7       29.94S WCI  24
PROVINCETOWN   MOCLDY    28  24  85 MISG        N/A
NANTUCKET      CLOUDY    32  30  92 NW12      29.93F WCI  23
MARTHAS VNYRD  FAIR     N/A N/A N/A N12       29.94F
$$

MAZALL-181300-
CENTRAL AND WESTERN MASSACHUSETTS

CITY           SKY/WX    TMP DP  RH WIND       PRES   REMARKS
WORCESTER      FAIR      13   5  70 W13       29.91R WCI  -2
6HR MIN TEMP:  13; 6HR MAX TEMP:  21;

FITCHBURG      FAIR      17  10  74 W6        29.97R WCI   9
ORANGE         FAIR       5   4  95 CALM      29.98S
SPRINGFIELD    PTCLDY     3  -2  82 CALM      29.99S
WESTFIELD      FAIR       4   3  96 CALM      29.99S
NORTH ADAMS    FAIR       6   4  91 NW5       30.01F WCI  -3
PITTSFIELD     FAIR      14   6  70 NW9       29.94F WCI   2
$$

RIZALL-181300-
RHODE ISLAND

CITY           SKY/WX    TMP DP  RH WIND       PRES   REMARKS
PROVIDENCE     MOCLDY    20  13  74 N7        29.98F WCI  11
6HR MIN TEMP:  20; 6HR MAX TEMP:  32;

NEWPORT        FAIR      21  15  78 N9        29.95F WCI  11
BLOCK ISLAND   FAIR      22  17  81 N10G17    29.96F WCI  11
SMITHFIELD     FAIR     N/A N/A N/A CALM      29.94F
WESTERLY       FAIR      21  13  71 N7        29.97F WCI  12
$$

CTZALL-181300-
CONNECTICUT

CITY           SKY/WX    TMP DP  RH WIND       PRES   REMARKS
BRADLEY INTL   FAIR       6   4  91 NE5       30.00F WCI  -3
6HR MIN TEMP:   4; 6HR MAX TEMP:  15;

HARTFORD       FAIR      14   9  80 CALM      30.02S
BRIDGEPORT     FAIR      19   9  65 W5        30.06R WCI  12
DANBURY        FAIR      13   7  77 W6        30.02R WCI   4
GROTON         FAIR      20  10  65 N10       29.97F WCI   9
NEW HAVEN      FAIR      17   8  67 S3        30.04R
CHESTER        FAIR      18  10  73 CALM      29.96F
MERIDEN        FAIR      11   8  88 CALM      30.02S
WILLIMANTIC    FAIR      14  10  84 CALM      29.99F
OXFORD         FAIR      10   6  84 CALM      29.97S
$$

MEZ002-015-021-024-NHZ003-005-008-011-012-014-VTZ005-008-181300-
NORTHERN NEW ENGLAND

CITY           SKY/WX    TMP DP  RH WIND       PRES   REMARKS
PORTLAND ME    FAIR      18  15  88 VRB5      29.93F WCI  11
6HR MIN TEMP:  14; 6HR MAX TEMP:  26;

BANGOR ME      FAIR       8   5  87 NW8       29.92S WCI  -4
CONCORD NH     FAIR      14  10  84 NW7       29.95F WCI   4
MANCHESTER NH  FAIR      15  13  91 CALM      29.95S
NASHUA NH      FAIR       8   6  92 NW5       29.97S WCI   0
PORTSMOUTH NH  PTCLDY    18  15  86 W6        29.93S WCI  10
JAFFREY NH     FAIR       7   5  91 CALM      29.91S
KEENE NH       FAIR       4   2  91 CALM      29.99S
BURLINGTON VT  CLOUDY    16   9  74 S8        29.99S WCI   5
MT. WASHINGTON NOT AVBL
$$

NYZ052-076-181300-
EASTERN NEW YORK

CITY           SKY/WX    TMP DP  RH WIND       PRES   REMARKS
ALBANY         FAIR       2  -3  80 CALM      30.06F
6HR MIN TEMP:   2; 6HR MAX TEMP:   8; 6HR PCP: TRACE;

NEW YORK CITY  FAIR      22   9  57 NW15      30.08R WCI   9
6HR MIN TEMP:  20; 6HR MAX TEMP:  23;

$$

ANZALL-181300-
MARINE OBSERVATIONS

STATION/POSITION TIME  TEMP    WIND        PRES    VSBY  WAVE
                       AIR SEA DIR/SP/G                  HT/PER
                 (UTC) (F)     (DEG/KT/KT) (MB)    (MI)  (FT/S)
BOSTON BUOY      1150   27 41  300/ 12/ 14 1014.4R         4/ 7
BUZZARDS BAY     1100   27     330/ 14/ 15 1015.0F
NANTUCKET SOUND  1150   31 38  330/ 14/ 17 1013.1F         1/ 3
MASS BAY-STELLWA 1104   26 39              1013.7F         4/ 6
ISLE OF SHOALS   1200   23     290/ 11/ 12 1014.1R
S OF BLOCK IS    1143      42                N/A           5/ 9
$$

......................KEY.........................
  SKY/WX - SKY CONDITION/PRESENT WEATHER
  TMP    - TEMPERATURE IN FAHRENHEIT
  DWPT   - DEWPOINT IN FAHRENHEIT
  RH     - RELATIVE HUMIDITY IN PERCENT
  WIND   - DIRECTION AND SPEED IN MPH
  PRES   - MEAN SEA LEVEL PRESSURE IN INCHES OF HG
  WCI    - WIND CHILL INDEX
  VSB    - VISIBILITY IN MILES
  HX     - HEAT INDEX
  TC     - TEMPERATURE IN CELSIUS
  VRB    - VARIABLE WIND DIRECTION
  N/A    - NOT AVAILABLE




USA.gov is the U.S. government's official web portal to all federal, state and local government web resources and services.